Simultaneous Nadir Overpasses (SNOs) Predictions

Prediction of SNOs between FY3D and AQUA Satellite Orbit:

Table of predicted SNOs for the next 14.0 days since TLE Epoch: 1/28/2024
Index Date (FY3D) Time (FY3D) Lat,Lon (FY3D) SZA (FY3D ) Date (AQUA) Time (AQUA) Lat,Lon (AQUA) SZA (AQUA ) Distance(km) Time Diff (sec)
1 01/30/2024 06:28:59 -80.94,-139.51 78.70 01/30/2024 06:30:13 -81.30,-138.96 78.54 40.42 74
2 01/30/2024 07:18:29 79.11, 51.60 97.59 01/30/2024 07:18:24 79.11, 51.61 97.59 0.31 5
3 02/01/2024 19:22:27 -79.33, 49.01 82.79 02/01/2024 19:23:32 -79.33, 49.00 82.81 0.25 65
4 02/01/2024 20:13:06 79.12,-142.03 96.89 02/01/2024 20:12:50 79.11,-141.92 96.88 2.44 16
5 02/04/2024 08:17:04 -79.33,-144.66 83.52 02/04/2024 08:17:57 -79.33,-144.59 83.54 1.57 53
6 02/04/2024 09:07:39 78.99, 25.32 95.97 02/04/2024 09:07:12 78.99, 25.21 95.99 2.31 27
7 02/06/2024 21:11:40 -79.31, 21.90 84.31 02/06/2024 21:12:20 -79.30, 22.03 84.35 2.91 40
8 02/06/2024 22:02:15 78.97,-168.15 95.18 02/06/2024 22:01:35 78.97,-168.20 95.19 1.13 40
9 02/09/2024 10:06:12 -79.20,-170.81 85.28 02/09/2024 10:06:39 -79.21,-170.92 85.27 2.57 27



Historial Predications of SNOs between FY3D and AQUA
